Regional Weather Roundup
Issued by NWS Sterling, VA

Home | Current Version | Previous Version | Graphics & Text | Print | Product List | Glossary On
Versions: 1 2 3 4 5 6 7 8 9 10 11 12 13 14 15 16 17 18 19 20 21 22 23 24 25 26 27
000
ASUS41 KLWX 251111
RWRLWX

REGIONAL WEATHER ROUNDUP
NATIONAL WEATHER SERVICE BALTIMORE MD/WASHINGTON DC
700 AM EDT MON SEP 25 2017

Note: "FAIR" indicates few or no clouds below 12,000 feet
with no significant weather and/or obstructions to visibility.
 TC=TEMPERATURE CELSIUS

 * =Non NWS site. Station does not report precipitation (e.g. rain,
    snow, etc.), thunder, or fog.

DCZ001-MDZ009-015-VAZ040>042-051-053>054-251200-
WASHINGTON METRO

CITY           SKY/WX    TMP DP  RH WIND       PRES   REMARKS
WASHINGTON NAT PTCLDY    72  68  87 CALM      30.05R
DULLES         PTCLDY    65  65 100 NW3       30.05R
ANDREWS AFB    CLEAR     65  64  97 CALM      30.04R
FT BELVOIR     CLEAR     64  63  97 CALM      30.04R
QUANTICO       MOCLDY    67  66  97 NW8       30.05R
COLLEGE PARK*  CLEAR     63  63  98 CALM      30.04R
LEESBURG*      CLEAR     64  64 100 CALM      30.06S
MANASSAS*      PTCLDY    60  59  96 CALM      30.05R
GAITHERSBURG*  CLEAR     65  64  97 CALM      30.06R

$$

MDZ006>007-011-014-251200-
BALTIMORE METRO

CITY           SKY/WX    TMP DP  RH WIND       PRES   REMARKS
BWI AIRPORT    PTCLDY    65  65 100 CALM      30.04R
MD SCIENCE CTR   N/A     74  67  78 MISG      30.04R
MARTIN STATE   CLEAR     68  68 100 CALM      30.05R
ANNAPOLIS      CLEAR     73  73 100 CALM      30.04R
FORT MEADE*    CLEAR     61  59  94 CALM      30.07R

$$

MDZ012-015-019>023-251200-
MARYLAND EASTERN SHORE

CITY           SKY/WX    TMP DP  RH WIND       PRES   REMARKS
OCEAN CITY     CLEAR     70  67  90 E6        30.04R
SALISBURY      CLEAR     64  63  96 SE3       30.03R FOG
CAMBRIDGE*     CLEAR     63  61  94 CALM      30.03S
EASTON*        CLEAR     64  61  88 CALM      30.07R

$$

MDZ017>025-251200-
SOUTHERN MARYLAND

CITY           SKY/WX    TMP DP  RH WIND       PRES   REMARKS
PATUXENT RIVER PTCLDY    64  64 100 CALM      30.03R
ST INIGOES     NOT AVBL
LEONARDTOWN*   CLEAR     64  64 100 CALM      30.05R

$$

MDZ003>005-251200-
NORTH CENTRAL MARYLAND

CITY           SKY/WX    TMP DP  RH WIND       PRES   REMARKS
FREDERICK*     CLEAR     63  63 100 CALM      30.08R FOG
HAGERSTOWN APT CLEAR     67  64  90 CALM      30.07R
WESTMINSTER*   CLEAR     66  64  94 N3        30.07R

$$

MDZ501>502-251200-
WESTERN MARYLAND

CITY           SKY/WX    TMP DP  RH WIND       PRES   REMARKS
OAKLAND*       CLOUDY    63  59  88 E6        30.15S
CUMBERLAND*    PTCLDY    63  63 100 CALM      30.14R

$$

VAZ025>031-251200-
SHENANDOAH VALLEY

CITY           SKY/WX    TMP DP  RH WIND       PRES   REMARKS
WINCHESTER*    CLEAR     59  57  94 CALM      30.08R FOG
FRONT ROYAL*   CLEAR     61  61 100 CALM      30.08R
LURAY*         PTCLDY    59  59 100 CALM      30.10R FOG
NEW MARKET*    CLEAR     56  55  95 CALM      30.09R
STAUNTON*      CLOUDY    54  53  98 CALM      30.12S FOG
WAYNESBORO*    CLEAR     57  57 100 SW8       30.11R

$$

WVZ021-048>050-054>055-251200-
EASTERN WEST VIRGINIA PANHANDLE

CITY           SKY/WX    TMP DP  RH WIND       PRES   REMARKS
MARTINSBURG    CLEAR     60  59  96 CALM      30.06S FOG
PETERSBURG*      N/A     59  58  98 CALM      30.12R FOG

$$

VAZ036>039-050-251200-
CENTRAL FOOTHILLS

CITY           SKY/WX    TMP DP  RH WIND       PRES   REMARKS
CHARLOTTESVILL CLEAR     63  61  93 CALM      30.05S
CULPEPER*      FOG       61  61 100 CALM      30.06R VSB 1/2
ORANGE*        CLEAR     61  61 100 CALM      30.05S
GORDONSVILLE*  CLEAR     61  61 100 CALM      30.05R
WARRENTON*     CLEAR     56  53  89 CALM      30.05R FOG

$$

VAZ055>057-251200-
NORTH AND CENTRAL PIEDMONT

CITY           SKY/WX    TMP DP  RH WIND       PRES   REMARKS
FREDERICKSBRG* CLEAR     64  64 100 CALM      30.04R
STAFFORD*      CLEAR     60  60 100 CALM      30.08S FOG

$$

NCZ024-NYZ072-PAZ021-071-VAZ022-071-251200-
OTHER REGIONAL OBSERVATIONS

CITY           SKY/WX    TMP DP  RH WIND       PRES   REMARKS
NEW YORK CITY  CLEAR     72  66  81 NE3       30.07R
PHILADELPHIA   PTCLDY    69  66  90 CALM      30.05R
PITTSBURGH     MOCLDY    65  62  90 CALM      30.10R
ROANOKE        PTCLDY    62  60  93 W3        30.11R
RICHMOND       MOCLDY    64  63  96 N7        30.02R
RALEIGH        MOCLDY    65  62  90 NE6       30.00S

$$

ANZ530>537-251200-
MARINE OBSERVATIONS

STATION/POSITION TIME  TEMP    WIND        PRES
                       AIR SEA DIR/SP/G
                 (UTC) (F)     (DEG/KT/KT) (MB)
THOMAS PT LIGHT  1100   74 77   60/  4/  5   N/A
BALT KEY BRIDGE  1042   72      40/  3/  3 1017.0R
COVE POINT       1042   74      90/  4/  6 1017.6R
LEWISETTA        1042   76 78   70/  7/  9 1016.4R
SOLOMONS ISLAND  1042   71 77   10/  2/  3 1016.5R
PINEY POINT      1042           30/  4/  5   N/A

$$





USA.gov is the U.S. government's official web portal to all federal, state and local government web resources and services.